Precipitable_Water
0.16 0.14 0.12 0.14 0.15 0.15 0.15 0.14 0.13 0.13 0.14 0.14 0.13 0.13 0.15 0.16 0.16 0.15 0.15 0.16 0.17 0.18 0.19 0.19 0.19 0.19 0.20 0.24 0.27 0.29 0.32 0.37 0.39 0.37 0.30 0.27 0.26 0.33 0.32 0.34 0.43 0.51 0.58 0.54
0.16 0.12 0.15 0.17 0.17 0.16 0.16 0.14 0.13 0.13 0.14 0.14 0.14 0.15 0.16 0.15 0.17 0.15 0.15 0.17 0.19 0.18 0.18 0.19 0.19 0.18 0.19 0.22 0.24 0.27 0.33 0.38 0.41 0.36 0.33 0.30 0.31 0.36 0.33 0.37 0.38 0.49 0.56 0.56
0.12 0.14 0.16 0.16 0.16 0.17 0.18 0.15 0.14 0.13 0.14 0.16 0.15 0.15 0.16 0.16 0.18 0.17 0.20 0.21 0.21 0.17 0.17 0.18 0.18 0.18 0.20 0.21 0.24 0.27 0.33 0.37 0.42 0.40 0.33 0.31 0.34 0.31 0.35 0.33 0.35 0.47 0.53 0.60
0.14 0.16 0.16 0.16 0.15 0.16 0.16 0.18 0.16 0.15 0.15 0.13 0.16 0.12 0.18 0.19 0.19 0.22 0.22 0.21 0.20 0.18 0.18 0.19 0.19 0.18 0.19 0.21 0.24 0.28 0.33 0.37 0.40 0.38 0.32 0.32 0.30 0.34 0.33 0.33 0.39 0.48 0.62 0.63
0.13 0.14 0.15 0.16 0.16 0.18 0.16 0.20 0.20 0.19 0.17 0.18 0.16 0.13 0.19 0.25 0.20 0.20 0.21 0.21 0.21 0.19 0.19 0.19 0.19 0.19 0.19 0.21 0.25 0.31 0.33 0.36 0.43 0.34 0.32 0.33 0.31 0.35 0.32 0.36 0.39 0.41 0.51 0.58
0.15 0.17 0.17 0.17 0.19 0.20 0.21 0.20 0.22 0.22 0.18 0.15 0.18 0.14 0.19 0.22 0.20 0.20 0.21 0.22 0.23 0.19 0.19 0.20 0.20 0.19 0.20 0.22 0.25 0.28 0.31 0.30 0.30 0.31 0.31 0.35 0.32 0.32 0.33 0.35 0.39 0.36 0.42 0.49
0.15 0.16 0.18 0.19 0.19 0.22 0.22 0.19 0.16 0.15 0.15 0.16 0.20 0.16 0.21 0.27 0.22 0.22 0.23 0.24 0.22 0.19 0.19 0.20 0.20 0.20 0.21 0.22 0.24 0.27 0.30 0.28 0.28 0.29 0.35 0.33 0.34 0.34 0.32 0.35 0.36 0.35 0.36 0.40
0.14 0.15 0.17 0.19 0.19 0.18 0.20 0.20 0.16 0.12 0.14 0.15 0.23 0.18 0.25 0.26 0.25 0.28 0.27 0.26 0.23 0.19 0.19 0.20 0.21 0.22 0.23 0.23 0.24 0.28 0.29 0.28 0.30 0.31 0.31 0.31 0.33 0.33 0.33 0.34 0.36 0.40 0.41 0.44
0.14 0.15 0.19 0.19 0.20 0.21 0.20 0.20 0.22 0.19 0.22 0.19 0.22 0.29 0.34 0.28 0.27 0.27 0.28 0.28 0.24 0.20 0.18 0.19 0.21 0.23 0.24 0.24 0.25 0.28 0.29 0.29 0.31 0.34 0.33 0.32 0.34 0.35 0.35 0.38 0.44 0.42 0.43 0.45
0.19 0.14 0.19 0.20 0.21 0.23 0.22 0.24 0.21 0.24 0.16 0.13 0.17 0.21 0.25 0.24 0.24 0.27 0.29 0.28 0.26 0.21 0.19 0.19 0.20 0.22 0.24 0.25 0.26 0.30 0.29 0.30 0.31 0.33 0.35 0.35 0.33 0.35 0.39 0.44 0.45 0.43 0.47 0.47
0.20 0.18 0.19 0.21 0.20 0.21 0.21 0.23 0.26 0.25 0.23 0.17 0.15 0.18 0.33 0.27 0.27 0.28 0.29 0.29 0.26 0.22 0.19 0.19 0.21 0.23 0.24 0.26 0.27 0.27 0.29 0.29 0.29 0.30 0.32 0.35 0.38 0.42 0.44 0.45 0.47 0.48 0.45 0.44
0.21 0.17 0.15 0.20 0.26 0.26 0.26 0.23 0.24 0.21 0.22 0.23 0.20 0.18 0.38 0.31 0.30 0.32 0.30 0.30 0.28 0.24 0.21 0.20 0.21 0.24 0.24 0.24 0.25 0.26 0.26 0.28 0.27 0.30 0.34 0.36 0.39 0.44 0.43 0.46 0.48 0.48 0.43 0.44
0.20 0.19 0.15 0.19 0.23 0.28 0.22 0.25 0.25 0.25 0.26 0.21 0.18 0.20 0.32 0.31 0.34 0.32 0.31 0.30 0.29 0.25 0.22 0.21 0.22 0.22 0.24 0.25 0.25 0.25 0.25 0.27 0.27 0.29 0.31 0.35 0.35 0.44 0.41 0.45 0.50 0.47 0.43 0.42
0.18 0.17 0.17 0.13 0.17 0.23 0.22 0.26 0.28 0.24 0.22 0.23 0.22 0.22 0.28 0.28 0.27 0.31 0.31 0.32 0.31 0.27 0.23 0.22 0.22 0.23 0.25 0.26 0.27 0.25 0.25 0.26 0.25 0.27 0.29 0.32 0.35 0.38 0.42 0.42 0.43 0.43 0.42 0.41
0.18 0.14 0.18 0.20 0.20 0.22 0.23 0.25 0.27 0.24 0.24 0.22 0.22 0.22 0.23 0.26 0.29 0.32 0.33 0.34 0.32 0.28 0.25 0.23 0.22 0.23 0.24 0.25 0.27 0.27 0.27 0.26 0.25 0.25 0.26 0.28 0.33 0.37 0.40 0.39 0.40 0.42 0.41 0.40
0.22 0.14 0.17 0.15 0.20 0.23 0.21 0.24 0.26 0.26 0.26 0.26 0.25 0.23 0.28 0.32 0.33 0.34 0.33 0.33 0.33 0.31 0.27 0.26 0.24 0.23 0.23 0.24 0.27 0.26 0.25 0.26 0.26 0.25 0.25 0.25 0.29 0.35 0.36 0.36 0.38 0.38 0.37 0.36
0.21 0.19 0.18 0.13 0.20 0.23 0.19 0.28 0.28 0.27 0.27 0.28 0.25 0.26 0.33 0.31 0.32 0.32 0.35 0.36 0.33 0.32 0.32 0.28 0.27 0.26 0.26 0.25 0.28 0.26 0.27 0.29 0.26 0.26 0.27 0.25 0.26 0.30 0.30 0.30 0.34 0.33 0.33 0.32
0.22 0.22 0.22 0.16 0.20 0.14 0.27 0.31 0.29 0.28 0.29 0.31 0.32 0.33 0.35 0.35 0.38 0.38 0.38 0.37 0.36 0.34 0.32 0.31 0.29 0.29 0.29 0.29 0.29 0.28 0.29 0.28 0.27 0.27 0.28 0.27 0.25 0.28 0.32 0.29 0.31 0.32 0.31 0.28
0.27 0.23 0.20 0.17 0.18 0.20 0.25 0.29 0.27 0.24 0.23 0.31 0.32 0.36 0.38 0.40 0.38 0.36 0.39 0.39 0.37 0.35 0.35 0.34 0.33 0.34 0.32 0.31 0.31 0.30 0.29 0.29 0.28 0.28 0.27 0.28 0.26 0.26 0.31 0.30 0.29 0.30 0.28 0.25
0.28 0.28 0.24 0.22 0.18 0.15 0.24 0.31 0.32 0.30 0.21 0.35 0.37 0.35 0.36 0.37 0.30 0.35 0.41 0.39 0.35 0.35 0.36 0.36 0.36 0.36 0.34 0.33 0.33 0.32 0.30 0.30 0.29 0.29 0.29 0.29 0.27 0.27 0.29 0.31 0.29 0.29 0.27 0.24
0.26 0.25 0.20 0.21 0.20 0.22 0.29 0.34 0.32 0.20 0.27 0.39 0.38 0.37 0.38 0.36 0.39 0.45 0.48 0.42 0.38 0.38 0.37 0.38 0.38 0.37 0.36 0.36 0.36 0.33 0.33 0.32 0.33 0.32 0.30 0.30 0.29 0.28 0.29 0.33 0.31 0.29 0.26 0.25
0.28 0.25 0.23 0.24 0.22 0.17 0.36 0.30 0.24 0.31 0.38 0.37 0.37 0.39 0.39 0.42 0.43 0.44 0.47 0.45 0.41 0.39 0.39 0.39 0.38 0.38 0.39 0.38 0.37 0.36 0.35 0.36 0.36 0.35 0.32 0.31 0.30 0.30 0.30 0.32 0.33 0.32 0.29 0.25
0.27 0.32 0.30 0.32 0.28 0.38 0.42 0.38 0.41 0.41 0.38 0.39 0.39 0.40 0.40 0.42 0.44 0.44 0.45 0.47 0.46 0.42 0.40 0.41 0.39 0.39 0.39 0.39 0.39 0.38 0.38 0.38 0.38 0.37 0.34 0.32 0.32 0.32 0.31 0.32 0.33 0.33 0.32 0.29
0.38 0.41 0.32 0.33 0.32 0.36 0.40 0.43 0.45 0.44 0.42 0.43 0.44 0.43 0.42 0.42 0.44 0.45 0.46 0.46 0.47 0.46 0.43 0.42 0.41 0.40 0.39 0.40 0.41 0.41 0.41 0.41 0.40 0.39 0.37 0.36 0.34 0.34 0.34 0.33 0.35 0.35 0.33 0.32
0.37 0.39 0.35 0.36 0.36 0.41 0.42 0.45 0.45 0.45 0.45 0.44 0.43 0.43 0.43 0.45 0.46 0.46 0.45 0.46 0.47 0.47 0.47 0.45 0.43 0.42 0.42 0.42 0.42 0.44 0.44 0.43 0.41 0.41 0.40 0.39 0.38 0.37 0.35 0.34 0.35 0.37 0.37 0.35
0.38 0.34 0.33 0.30 0.36 0.41 0.41 0.46 0.48 0.45 0.44 0.45 0.44 0.44 0.46 0.47 0.46 0.47 0.47 0.48 0.47 0.47 0.48 0.47 0.46 0.45 0.44 0.44 0.45 0.45 0.46 0.46 0.44 0.43 0.43 0.42 0.41 0.40 0.39 0.37 0.36 0.36 0.38 0.38
Wind_Speed
15 14 15 15 13 11 10 8 9 8 9 13 10 13 14 15 19 21 23 27 30 31 33 33 37 37 37 33 34 32 28 28 27 24 23 23 25 28 32 35 37 36 36 33
9 14 12 10 13 10 11 11 10 5 7 11 14 14 13 16 23 22 24 26 31 33 33 35 36 37 35 34 33 31 28 28 23 22 23 23 21 25 28 32 35 35 36 35
14 9 9 10 12 14 10 12 9 9 12 9 17 9 12 15 21 20 24 28 31 33 34 35 36 36 35 33 33 30 26 25 21 21 22 19 19 23 24 30 33 34 35 36
9 9 10 11 11 13 8 13 9 9 11 9 13 15 11 17 21 25 27 29 31 33 33 36 36 36 35 33 34 30 28 25 22 21 18 14 14 17 22 27 31 33 31 35
7 10 11 12 11 12 10 11 10 9 10 11 9 13 11 19 24 26 28 29 31 32 34 35 37 36 35 33 32 32 30 26 17 16 13 12 11 14 19 24 29 34 35 34
7 8 10 12 12 10 13 13 11 7 7 7 10 13 11 20 25 26 28 30 31 32 32 35 35 36 34 33 32 32 32 27 19 14 12 10 9 12 15 20 26 31 35 35
4 7 9 13 14 9 16 16 8 5 5 8 10 11 12 20 23 24 28 30 31 31 32 34 35 36 34 33 32 32 32 28 23 16 12 10 8 10 13 17 23 27 32 34
10 7 11 13 12 12 12 11 8 8 10 12 6 9 13 16 19 25 27 28 30 31 31 33 34 34 35 33 32 31 32 30 26 21 16 11 9 8 10 14 20 25 29 32
11 7 8 10 12 12 12 9 9 9 8 8 7 9 11 15 22 24 26 28 29 30 31 32 33 33 34 33 32 31 31 30 28 24 20 15 9 6 6 10 16 22 27 30
10 10 9 10 10 8 11 10 7 7 9 9 10 11 10 18 22 23 25 27 28 29 30 31 32 32 33 33 32 31 30 30 29 27 22 18 13 7 4 6 12 18 24 28
12 9 9 10 7 11 9 8 8 8 7 9 11 10 11 16 19 22 26 26 27 27 28 29 30 31 32 32 32 31 30 30 29 28 26 21 16 10 6 3 8 15 21 25
10 12 12 12 9 11 11 12 9 8 7 10 10 10 11 14 17 23 24 25 25 26 27 28 29 30 30 31 32 31 31 29 30 28 28 25 20 14 8 3 3 11 17 22
12 10 12 6 9 10 10 11 10 11 8 9 9 10 10 12 20 23 23 23 24 25 25 26 27 28 30 30 31 30 30 30 29 29 28 28 25 19 12 6 0 7 14 19
12 11 12 13 17 19 18 17 12 10 9 10 13 17 16 18 20 21 21 22 22 23 24 24 26 27 28 28 29 30 29 30 30 28 28 28 28 25 18 11 5 4 11 16
12 13 15 18 21 21 19 18 16 15 13 11 12 15 18 19 18 17 17 20 21 22 23 23 24 25 26 27 27 28 28 28 29 29 28 28 28 27 24 16 9 4 6 13
12 13 17 18 19 13 17 19 16 16 15 16 18 20 19 17 16 14 18 20 20 21 21 22 22 23 24 25 25 26 26 27 27 28 28 28 27 27 27 22 15 8 3 8
13 13 15 13 15 17 16 11 12 12 13 11 15 16 15 16 18 18 18 17 18 19 20 20 21 21 22 23 23 24 24 25 26 26 26 27 26 26 26 25 23 15 7 3
14 14 13 14 16 10 12 13 10 12 15 15 15 16 15 16 18 18 17 16 16 18 19 19 19 19 20 21 21 22 22 23 24 24 24 24 25 25 24 24 23 22 16 8
12 13 12 11 13 18 17 8 8 10 14 15 16 17 17 16 16 19 17 15 17 17 17 18 18 18 19 19 19 20 20 21 21 22 22 22 22 22 22 22 22 21 20 17
11 12 12 11 12 11 11 8 11 13 12 5 7 14 14 14 15 16 16 16 17 17 17 16 17 17 17 18 18 18 18 19 19 20 20 20 20 20 19 19 19 18 18 17
10 12 14 14 13 14 15 12 8 9 10 9 14 17 17 16 17 18 19 18 18 17 17 16 16 17 17 17 17 17 17 17 18 18 18 18 18 17 17 17 16 16 15 14
11 11 10 11 11 13 11 6 10 12 14 17 19 19 20 18 18 19 20 19 19 18 17 17 17 16 17 17 17 17 17 17 17 17 17 17 16 16 16 15 14 14 13 12
15 14 12 11 12 13 12 14 17 20 21 22 22 22 21 21 20 20 20 20 20 19 18 18 17 17 17 17 17 18 18 17 17 16 17 17 16 16 15 15 14 14 13 12
20 20 20 19 18 21 21 23 24 26 26 24 23 21 21 22 22 22 22 21 20 19 19 19 19 19 19 18 18 18 18 18 18 17 17 17 17 17 17 16 16 15 15 14
20 21 22 24 25 24 23 20 20 20 20 20 21 22 22 23 23 23 23 22 22 21 20 20 20 20 20 20 20 19 19 19 19 19 19 19 19 19 19 19 18 18 18 17
24 26 23 24 25 22 23 21 23 24 24 24 23 22 23 24 24 23 24 23 23 22 22 22 22 22 22 22 22 22 21 21 21 22 22 22 22 22 21 21 21 21 21 20
Wind_Direction
55 56 41 35 33 28 19 3 13 16 14 3 360 350 353 1 352 345 344 342 340 340 338 339 336 334 333 324 321 317 310 307 303 299 292 281 260 243 235 230 228 227 225 226
66 42 25 20 24 17 22 12 4 1 358 357 350 346 354 3 355 350 347 347 347 344 343 342 341 341 339 336 331 325 316 310 299 297 297 285 260 241 233 228 224 224 223 222
46 29 11 10 16 5 26 6 350 347 333 330 349 350 352 4 353 353 353 349 348 348 348 348 347 346 345 344 343 337 327 319 309 303 300 284 261 241 232 225 222 223 223 218
29 16 4 1 12 0 6 360 346 338 344 357 3 355 21 360 354 354 356 353 351 351 352 351 351 351 350 349 348 349 340 326 310 308 301 291 263 242 233 226 222 219 214 215
10 5 2 7 358 354 356 345 341 336 335 337 6 355 8 6 355 355 355 353 353 354 354 356 355 354 354 355 356 356 353 347 331 321 306 295 267 250 236 228 223 219 217 217
16 5 2 358 343 338 334 320 289 312 328 329 354 359 351 358 356 353 356 354 355 355 357 358 358 358 358 359 359 0 1 1 354 340 326 307 278 260 242 229 224 220 218 218
347 359 359 353 348 343 348 351 10 323 329 347 342 349 355 356 356 358 356 358 358 359 359 359 0 1 1 2 2 4 5 6 5 356 343 328 298 273 246 233 224 221 217 216
339 327 350 353 359 344 343 353 2 336 343 331 334 342 351 356 356 359 358 360 359 0 1 1 3 4 4 4 5 6 8 10 10 8 359 340 316 288 260 238 225 218 215 214
341 344 339 350 345 347 347 353 341 330 311 325 339 355 354 0 357 359 359 -0 1 1 2 4 4 7 7 7 7 9 10 11 13 10 7 0 349 321 279 237 225 219 214 212
336 321 330 336 331 338 344 340 331 333 334 337 339 338 354 354 355 357 357 359 360 2 3 5 7 8 9 10 10 11 12 12 13 13 13 10 3 352 311 253 224 215 212 211
329 318 321 322 318 337 332 327 326 323 319 330 333 341 340 348 354 354 356 357 359 0 2 4 7 9 10 11 13 14 13 14 15 16 17 16 13 3 346 287 225 213 211 208
327 318 314 326 331 327 324 320 316 318 331 314 314 322 337 346 349 355 353 355 357 359 1 4 5 7 9 11 13 14 16 16 17 19 20 20 18 14 7 345 231 208 205 205
321 312 316 309 318 319 317 316 304 299 307 302 317 324 334 345 349 348 349 352 355 357 360 3 6 7 9 11 13 15 16 18 19 21 22 24 24 23 25 32 58 194 197 199
307 302 297 302 307 310 308 302 286 285 294 303 291 299 316 331 337 341 346 350 352 355 357 0 3 6 9 11 13 15 18 19 21 22 24 26 27 29 32 38 54 158 189 195
296 296 296 299 303 303 299 297 286 271 266 282 301 314 310 319 325 331 340 345 348 351 354 357 1 4 7 10 13 15 17 20 22 23 25 27 29 32 35 37 44 72 181 193
287 297 304 304 304 311 302 296 286 278 272 266 280 293 304 311 324 331 336 341 344 347 350 354 358 1 5 8 11 14 17 19 21 23 26 27 30 32 35 37 40 47 113 189
284 294 306 302 314 312 306 308 282 280 279 277 275 286 308 311 319 323 326 333 340 343 346 350 354 358 2 6 10 12 15 19 20 22 24 26 29 31 35 38 40 42 53 151
282 284 293 300 310 311 302 311 306 294 287 271 278 284 297 302 309 313 316 323 331 337 342 346 350 354 358 2 6 10 13 15 18 19 21 24 27 29 34 35 39 42 45 52
275 282 291 296 301 302 305 319 304 306 303 292 278 287 287 291 312 314 318 319 327 332 337 341 346 350 353 357 1 4 7 10 12 15 17 19 22 25 28 31 35 37 42 45
274 276 283 292 296 302 303 315 309 311 308 315 307 309 306 300 306 314 319 318 321 326 331 335 339 343 347 350 355 357 359 2 5 8 11 13 16 18 21 24 27 30 33 37
277 276 270 279 291 297 293 292 302 304 316 306 311 310 305 298 297 304 309 311 313 317 321 326 330 334 337 342 345 347 350 352 355 359 3 5 8 9 10 14 17 18 20 22
265 277 278 278 286 292 293 284 285 298 305 304 306 304 305 298 297 298 302 305 306 307 312 316 320 324 329 332 334 337 339 342 346 349 351 353 355 357 359 359 0 2 3 2
264 265 283 267 283 286 291 287 294 293 293 296 297 298 297 297 296 297 298 299 300 300 303 307 311 316 319 322 325 327 330 332 335 337 339 340 341 341 342 341 341 340 340 340
274 271 275 282 282 285 284 292 293 295 292 292 288 291 292 293 294 296 298 299 298 296 297 301 304 307 311 313 316 318 321 323 325 326 327 328 328 327 327 326 325 322 319 317
278 284 279 275 276 280 285 291 292 298 300 300 295 293 290 293 294 295 296 296 296 294 294 295 298 300 303 306 308 311 313 314 315 317 317 318 318 316 315 314 312 309 306 303
273 274 271 273 276 278 283 287 296 297 298 298 297 295 294 295 295 295 296 295 294 294 292 292 294 297 298 300 302 304 305 307 308 310 311 310 311 310 308 307 306 302 298 295